Location: *
(28.3744°N, 81.5492°W)
Time: 04:23:47
(UTC+00:00)

CSL-04 Debris - Pass Details

Date: 15 June 2025
Orbit: 819 x 841 km, 98.7° (Epoch: 11 July)

Event Time Altitude Azimuth Distance (km) Brightness Sun altitude
Exits shadow 01:25:21 10° 161° (SSE) 2,478 6.2 -12.2°
Reaches altitude 10° 01:25:25 10° 161° (SSE) 2,446 6.1 -12.2°
Maximum altitude 01:30:50 77° 76° (ENE) 859 4.1 -13.2°
Drops below altitude 10° 01:36:16 10° 351° (N) 2,445 7.3 -14.2°
Sets 01:38:37 0° 350° (N) 3,378 8.1 -14.6°
